MST,Max TemperatureF,Mean TemperatureF,Min TemperatureF,Max Dew PointF,MeanDew PointF,Min DewpointF,Max Humidity, Mean Humidity, Min Humidity, Max Sea Level PressureIn, Mean Sea Level PressureIn, Min Sea Level PressureIn, Max VisibilityMiles, Mean VisibilityMiles, Min VisibilityMiles, Max Wind SpeedMPH, Mean Wind SpeedMPH, Max Gust SpeedMPH,PrecipitationIn, CloudCover, Events, WindDirDegrees
2012-10-1,102,90,78,41,31,25,24,12,7,29.98,29.89,29.82,10,10,10,22,9,29,0.00,0,Rain,6
2012-10-2,104,86,69,34,31,27,25,14,7,29.90,29.82,29.73,10,10,10,9,1,,0.00,0,,217
2012-10-3,104,86,69,37,31,27,25,14,7,29.90,29.83,29.78,10,10,10,18,6,24,0.00,0,,190
2012-10-4,96,84,71,39,34,28,27,16,9,29.99,29.91,29.85,10,10,9,18,7,24,0.00,0,,172
2012-10-5,93,80,68,37,34,30,30,18,11,29.99,29.91,29.83,10,10,10,9,4,,0.00,0,,186
2012-10-6,93,80,68,36,33,32,28,19,11,29.91,29.84,29.76,10,10,10,10,4,,0.00,0,,189
2012-10-7,93,78,64,41,30,27,31,18,9,29.91,29.84,29.79,10,10,10,26,4,26,0.00,0,Rain,19
2012-10-8,93,78,64,43,36,30,30,22,15,29.93,29.85,29.78,10,10,10,16,4,23,0.00,0,,194
2012-10-9,93,80,68,52,44,39,43,28,16,29.92,29.85,29.78,10,10,10,20,6,25,0.00,0,,182
2012-10-10,87,79,71,64,50,39,73,38,22,29.92,29.84,29.77,10,10,10,20,5,26,0.00,2,Rain,195
2012-10-11,71,66,62,64,61,52,100,82,64,29.91,29.83,29.76,10,8,1,13,2,,0.98,3,Rain-Thunderstorm,29
2012-10-12,69,63,57,54,50,46,88,64,43,30.10,30.01,29.87,10,10,4,21,6,30,0.07,2,Rain-Thunderstorm,151
2012-10-13,78,66,55,54,49,45,88,57,30,30.21,30.13,30.05,10,10,10,16,4,20,0.00,0,,10
2012-10-14,86,77,68,52,47,41,56,37,22,30.15,30.05,29.97,10,10,10,28,19,34,0.00,0,Rain,5
2012-10-15,89,80,71,50,45,41,44,30,20,30.00,29.93,29.85,10,10,10,18,11,25,0.00,0,,9
2012-10-16,91,78,64,55,47,37,68,37,15,29.91,29.82,29.72,10,10,8,16,3,18,0.00,0,,26
2012-10-17,89,76,64,48,39,19,56,28,10,29.94,29.86,29.79,10,10,10,30,8,38,0.00,0,Rain,2
2012-10-18,86,78,69,30,23,18,21,14,8,30.05,29.98,29.94,10,10,10,26,15,33,0.09,0,Rain,11
2012-10-19,89,74,59,39,31,25,45,24,10,29.99,29.90,29.79,10,10,10,21,5,24,0.00,0,,29
2012-10-20,91,74,57,48,37,30,48,29,12,29.84,29.75,29.64,10,10,10,18,3,23,0.00,0,,182
2012-10-21,84,75,66,52,48,45,56,38,25,29.78,29.73,29.69,10,10,10,25,9,31,0.00,0,,174
2012-10-22,82,73,64,55,47,37,59,41,28,29.90,29.81,29.75,10,10,10,24,9,32,0.00,0,,181
2012-10-23,80,71,62,45,40,36,52,32,20,29.90,29.82,29.75,10,10,10,18,8,23,0.00,0,,171
2012-10-24,77,68,59,39,32,28,40,27,17,30.01,29.91,29.83,10,10,10,21,6,28,0.00,0,,168
2012-10-25,77,65,53,32,26,19,44,24,12,30.12,30.05,30.00,10,10,10,26,9,31,0.00,0,,6
2012-10-26,71,65,59,28,20,14,27,18,11,30.22,30.12,30.03,10,10,10,37,25,45,0.00,0,Rain,357
2012-10-27,78,70,62,25,19,16,22,15,10,30.04,29.97,29.91,10,10,10,31,22,40,0.00,0,Rain,10
2012-10-28,84,70,55,28,24,18,33,18,10,30.03,29.98,29.94,10,10,10,22,10,25,0.00,0,,14
2012-10-29,86,70,53,37,30,23,51,26,11,30.13,30.05,30.00,10,10,10,10,2,,0.00,0,,38
2012-10-30,86,70,53,36,29,23,47,26,11,30.10,30.02,29.94,10,10,10,14,2,20,0.00,0,,3
2012-10-31,84,68,53,36,31,25,47,27,13,30.05,29.97,29.90,10,10,10,6,1,,0.00,0,,198